Probability
0 0 0 0 0 0 0 0 0 0 0 0 0 0 0 0 0 0 0 0 0 0 0 0 0 0 0 0 0 0 0 0 0 0 26 39 68 68 84 90 100 100 100
0 0 0 0 0 0 0 0 0 0 0 0 0 0 0 0 0 0 0 0 0 0 0 0 0 0 0 0 0 0 0 0 0 0 10 32 48 55 68 87 100 100 100
0 0 0 0 0 0 0 0 0 0 0 0 0 0 0 0 0 0 0 0 0 0 0 0 0 0 0 0 0 0 0 0 0 0 0 10 26 42 61 71 90 100 100
0 0 0 0 0 0 0 0 0 0 0 0 0 0 0 0 0 0 0 0 0 0 0 0 0 0 0 0 0 0 0 0 0 0 0 6 23 32 52 65 81 100 100
0 0 0 0 0 0 0 0 0 0 0 0 0 0 0 0 0 0 0 0 0 0 0 0 0 0 0 0 0 0 0 0 0 0 0 3 10 26 58 58 68 84 100
0 0 0 0 0 0 0 0 0 0 0 0 0 0 0 0 0 0 0 0 0 0 0 0 0 0 0 0 0 0 0 0 0 0 0 0 3 16 45 61 61 81 94
0 0 0 0 0 0 0 0 0 0 0 0 0 0 0 0 0 0 0 0 0 0 0 0 0 0 0 0 0 0 0 0 0 0 0 0 6 10 26 45 55 74 90
0 0 0 0 0 0 0 0 0 0 0 0 0 0 0 0 0 0 0 0 0 0 0 0 0 0 0 0 0 0 0 0 0 0 0 0 3 13 23 29 55 58 77
0 0 0 0 0 0 0 0 0 0 0 0 0 0 0 0 0 0 0 0 0 0 0 0 0 0 0 0 0 0 0 0 0 0 0 0 0 10 16 26 42 65 71
0 0 0 0 0 0 0 0 0 0 0 0 0 0 0 0 0 0 0 0 0 0 0 0 0 0 0 0 0 0 0 0 0 0 0 0 0 13 13 26 29 52 55
0 0 0 0 0 0 0 0 0 0 0 0 0 0 0 0 0 0 0 0 0 0 0 0 0 0 0 0 0 0 0 0 0 0 0 0 0 6 16 32 26 39 52
0 0 0 0 0 0 0 0 0 0 0 0 0 0 0 0 0 0 0 0 0 0 0 0 0 0 0 0 0 0 0 0 0 0 0 0 0 0 6 23 35 32 35
0 0 0 0 0 0 0 0 0 0 0 0 0 0 0 0 0 0 0 0 0 0 0 0 0 0 0 0 0 0 0 0 0 0 0 0 0 0 0 10 6 23 29
0 0 0 0 0 0 0 0 0 0 0 0 0 0 0 0 0 0 0 0 0 0 0 0 0 0 0 0 0 0 0 0 0 0 0 0 0 0 0 0 0 0 6
0 0 0 0 0 0 0 0 0 0 0 0 0 0 0 0 0 0 0 0 0 0 0 0 0 0 0 0 0 0 0 0 0 0 0 0 0 0 0 0 0 0 0
0 0 0 0 0 0 0 0 0 0 0 0 0 0 0 0 0 0 0 0 0 0 0 0 0 0 0 0 0 0 0 0 0 0 0 0 0 0 0 0 0 0 0
0 0 0 0 0 0 0 0 0 0 0 0 0 0 0 0 0 0 0 0 0 0 0 0 0 0 0 0 0 0 0 0 0 0 0 0 0 0 0 0 0 0 0
0 0 0 0 0 0 0 0 0 0 0 0 0 0 0 0 0 0 0 0 0 0 0 0 0 0 0 0 0 0 0 0 0 0 0 0 0 0 0 0 0 0 0
0 0 0 0 0 0 0 0 0 0 0 0 0 0 0 0 0 0 0 0 0 0 0 0 0 0 0 0 0 0 0 0 0 0 0 0 0 0 0 0 0 0 0
0 0 0 0 0 0 0 0 0 0 0 0 0 0 0 0 0 0 0 0 0 0 0 0 0 0 0 0 0 0 0 0 0 0 0 0 0 0 0 0 0 0 0
0 0 0 0 0 0 0 0 0 0 0 0 0 0 0 0 0 0 0 0 0 0 0 0 0 0 0 0 0 0 0 0 0 0 0 0 0 0 0 0 0 0 0
0 0 0 0 0 0 0 0 0 0 0 0 0 0 0 0 0 0 0 0 0 0 0 0 0 0 0 0 0 0 0 0 0 0 0 0 0 0 0 0 0 0 0
0 0 0 0 0 0 0 0 0 0 0 0 0 0 0 0 0 0 0 0 0 0 0 0 0 0 0 0 0 0 0 0 0 0 0 0 0 0 0 0 0 0 0
0 0 0 0 0 0 0 0 0 0 0 0 0 0 0 0 0 0 0 0 0 0 0 0 0 0 0 0 0 0 0 0 0 0 0 0 0 0 0 0 0 0 0
0 0 0 0 0 0 0 0 0 0 0 0 0 0 0 0 0 0 0 0 0 0 0 0 0 0 0 0 0 0 0 0 0 0 0 0 0 0 0 0 0 0 0
0 0 0 0 0 0 0 0 0 0 0 0 0 0 0 0 0 0 0 0 0 0 0 0 0 0 0 0 0 0 0 0 0 0 0 0 0 0 0 0 0 0 0
Height
5642 5627 5612 5599 5586 5576 5566 5559 5552 5549 5547 5546 5547 5551 5557 5565 5575 5586 5601 5614 5627 5640 5652 5665 5678 5690 5701 5712 5722 5732 5742 5752 5761 5770 5779 5787 5795 5802 5809 5816 5822 5828 5835
5617 5601 5586 5572 5560 5548 5538 5530 5522 5517 5515 5514 5514 5516 5521 5528 5538 5548 5562 5578 5593 5608 5623 5637 5651 5665 5679 5691 5703 5715 5726 5736 5747 5757 5766 5775 5783 5791 5799 5806 5813 5820 5827
5592 5576 5561 5547 5534 5522 5511 5501 5493 5488 5484 5483 5483 5485 5489 5495 5503 5513 5525 5541 5557 5574 5590 5607 5623 5639 5655 5670 5683 5696 5708 5720 5731 5742 5753 5763 5772 5780 5788 5796 5804 5811 5819
5569 5553 5538 5524 5509 5496 5484 5474 5466 5460 5456 5454 5455 5457 5460 5465 5472 5480 5491 5506 5522 5538 5556 5574 5593 5612 5630 5647 5662 5677 5690 5702 5715 5727 5739 5750 5759 5769 5777 5786 5794 5802 5810
5549 5533 5517 5501 5486 5472 5459 5448 5439 5432 5429 5427 5428 5431 5435 5440 5445 5452 5462 5474 5488 5504 5522 5542 5563 5585 5604 5622 5639 5655 5670 5684 5698 5711 5724 5736 5747 5757 5766 5775 5784 5792 5801
5531 5514 5497 5480 5464 5449 5434 5420 5410 5402 5398 5397 5400 5405 5411 5417 5422 5428 5436 5446 5458 5472 5490 5511 5533 5555 5575 5596 5615 5633 5650 5665 5680 5695 5708 5721 5733 5744 5754 5764 5773 5782 5791
5514 5496 5478 5460 5443 5426 5408 5392 5379 5370 5366 5364 5369 5377 5386 5393 5399 5405 5414 5422 5431 5444 5462 5482 5502 5524 5547 5569 5590 5609 5628 5645 5661 5677 5692 5706 5719 5731 5742 5752 5762 5771 5780
5497 5479 5459 5441 5422 5403 5385 5367 5351 5340 5334 5332 5335 5345 5358 5370 5373 5386 5394 5401 5409 5421 5437 5454 5473 5495 5518 5541 5564 5585 5606 5625 5642 5659 5675 5690 5705 5718 5730 5740 5751 5761 5770
5482 5463 5443 5424 5403 5382 5363 5346 5329 5316 5308 5306 5306 5314 5329 5342 5354 5366 5374 5383 5392 5402 5415 5430 5447 5468 5490 5514 5538 5561 5582 5603 5622 5641 5658 5674 5689 5704 5717 5729 5739 5750 5760
5470 5450 5430 5410 5388 5367 5349 5332 5316 5302 5292 5287 5287 5292 5303 5317 5332 5346 5356 5366 5376 5386 5396 5408 5425 5444 5465 5488 5512 5536 5558 5580 5602 5622 5640 5658 5674 5690 5704 5716 5727 5738 5749
5459 5439 5419 5398 5377 5357 5340 5324 5309 5296 5285 5278 5276 5279 5286 5299 5313 5327 5339 5350 5361 5371 5380 5391 5406 5423 5442 5464 5487 5511 5535 5560 5583 5604 5624 5642 5658 5675 5691 5704 5715 5727 5738
5451 5431 5410 5389 5368 5350 5335 5320 5307 5295 5284 5276 5273 5273 5278 5287 5298 5312 5325 5335 5346 5357 5367 5377 5389 5404 5422 5442 5464 5489 5515 5540 5563 5585 5606 5626 5643 5660 5676 5691 5704 5715 5726
5445 5425 5404 5383 5363 5346 5331 5319 5307 5297 5287 5280 5275 5274 5276 5281 5290 5301 5313 5323 5334 5344 5354 5364 5373 5387 5403 5422 5445 5469 5495 5519 5544 5567 5589 5610 5629 5646 5663 5678 5692 5703 5715
5438 5418 5398 5377 5358 5342 5329 5318 5308 5299 5291 5284 5280 5277 5277 5280 5285 5293 5303 5313 5324 5333 5342 5351 5361 5373 5387 5406 5428 5451 5475 5500 5525 5549 5573 5594 5614 5632 5649 5665 5680 5692 5704
5432 5413 5394 5374 5356 5340 5327 5317 5308 5300 5293 5287 5283 5280 5279 5280 5283 5289 5296 5305 5315 5324 5332 5341 5350 5360 5374 5392 5412 5433 5457 5483 5509 5533 5557 5579 5599 5618 5635 5652 5667 5680 5692
5428 5410 5391 5373 5355 5339 5326 5316 5308 5300 5294 5289 5285 5282 5281 5281 5283 5286 5291 5298 5307 5316 5324 5331 5340 5350 5363 5380 5399 5420 5443 5468 5493 5518 5541 5564 5584 5603 5621 5638 5654 5669 5681
5426 5408 5390 5372 5355 5339 5325 5314 5306 5299 5293 5289 5285 5282 5281 5280 5282 5284 5288 5294 5301 5309 5317 5323 5331 5341 5354 5369 5387 5407 5429 5453 5477 5502 5526 5549 5570 5589 5608 5625 5641 5657 5669
5424 5407 5390 5372 5355 5339 5325 5313 5304 5297 5292 5287 5284 5281 5280 5280 5280 5282 5286 5290 5296 5303 5310 5317 5324 5334 5345 5360 5378 5397 5418 5440 5464 5488 5513 5535 5556 5576 5594 5612 5629 5644 5659
5424 5407 5390 5372 5356 5340 5325 5313 5303 5296 5290 5285 5282 5280 5278 5278 5279 5281 5283 5287 5293 5298 5305 5311 5318 5327 5338 5352 5370 5388 5408 5429 5452 5476 5500 5522 5543 5563 5581 5599 5616 5632 5647
5424 5408 5391 5374 5357 5341 5326 5313 5303 5295 5288 5283 5280 5278 5277 5277 5277 5279 5282 5285 5289 5294 5300 5306 5313 5322 5333 5346 5362 5380 5399 5419 5441 5464 5487 5509 5530 5550 5568 5587 5605 5620 5636
5424 5409 5392 5376 5359 5343 5328 5315 5304 5295 5287 5282 5278 5276 5275 5275 5276 5277 5280 5283 5287 5291 5296 5302 5308 5317 5328 5341 5356 5373 5392 5412 5433 5454 5477 5499 5520 5540 5557 5574 5591 5608 5624
5425 5410 5394 5378 5362 5347 5331 5317 5306 5296 5289 5283 5278 5276 5275 5275 5276 5277 5279 5281 5284 5288 5293 5298 5305 5313 5324 5336 5351 5368 5385 5403 5424 5445 5467 5488 5508 5528 5546 5563 5581 5597 5612
5427 5412 5397 5382 5367 5351 5336 5322 5310 5299 5291 5285 5280 5277 5276 5276 5276 5277 5279 5281 5284 5287 5291 5296 5302 5310 5321 5333 5348 5364 5380 5398 5418 5438 5459 5480 5500 5520 5537 5553 5570 5586 5601
5429 5415 5400 5385 5371 5356 5342 5328 5315 5304 5295 5288 5283 5280 5278 5277 5277 5278 5280 5281 5284 5287 5290 5295 5301 5309 5319 5332 5346 5361 5377 5394 5412 5432 5452 5472 5492 5511 5528 5544 5560 5576 5591
5431 5417 5404 5389 5375 5361 5347 5334 5321 5310 5300 5293 5288 5284 5281 5280 5280 5280 5281 5283 5285 5288 5291 5296 5301 5309 5319 5331 5344 5359 5374 5389 5407 5425 5443 5464 5484 5502 5520 5536 5549 5566 5582
5432 5419 5405 5392 5379 5366 5354 5340 5328 5316 5307 5299 5293 5289 5286 5284 5284 5284 5285 5286 5288 5290 5293 5297 5303 5310 5320 5331 5343 5357 5371 5386 5401 5419 5436 5455 5475 5493 5511 5526 5540 5557 5574
Wind_Speed
100 101 101 98 96 93 92 90 89 88 88 88 89 91 93 97 100 103 103 103 101 99 97 94 92 90 87 83 80 77 75 73 69 65 62 60 57 54 53 51 50 49 46
99 97 93 90 87 86 85 84 84 83 82 82 82 84 86 89 93 98 102 104 105 104 102 100 98 95 93 89 85 82 79 77 74 70 66 63 61 58 56 54 52 50 48
93 89 86 85 84 83 81 79 78 76 75 75 75 76 78 81 85 91 97 101 105 106 106 105 103 101 98 95 91 87 83 80 78 74 71 67 65 62 59 57 54 52 50
87 84 83 82 80 78 77 75 73 71 70 69 69 69 70 72 76 82 89 95 101 105 107 108 107 105 103 100 96 92 87 84 81 78 75 71 68 65 63 60 58 55 52
83 81 80 79 77 76 75 74 72 71 69 67 66 65 65 65 68 74 81 88 95 101 106 109 110 109 107 105 101 98 93 88 84 82 79 75 72 69 66 63 61 58 55
80 80 79 77 76 75 74 73 72 71 70 69 66 65 64 63 64 67 72 80 88 96 102 107 110 112 112 109 106 102 98 93 88 85 82 79 75 71 69 67 64 61 58
79 78 77 76 75 74 73 72 71 69 69 70 70 67 64 64 65 65 66 71 81 90 97 104 109 113 115 114 111 107 103 98 93 89 85 82 79 75 72 69 67 64 62
78 77 76 75 75 74 72 68 65 62 61 63 67 68 67 66 69 65 64 66 72 82 90 98 106 113 117 117 115 112 108 103 97 93 88 85 82 78 74 72 70 67 64
77 76 75 76 76 73 68 63 58 53 49 49 54 61 66 69 68 67 66 65 66 71 82 93 101 110 117 119 118 116 112 107 102 97 92 88 85 81 77 74 72 70 67
76 74 74 76 74 67 62 58 52 46 40 35 39 47 58 64 68 68 67 65 63 64 72 85 96 106 114 120 120 119 116 112 106 101 96 91 87 84 80 76 73 72 70
74 73 74 75 70 62 57 52 46 41 34 27 25 32 44 55 62 65 65 65 63 62 64 74 88 100 110 117 121 121 119 115 110 104 100 95 90 87 83 79 74 72 71
72 72 73 73 66 58 52 46 42 37 32 24 16 18 29 42 53 60 62 62 62 61 60 65 78 93 103 113 119 121 120 117 113 108 103 98 93 89 85 82 76 73 71
71 70 72 71 63 54 47 41 37 33 29 23 14 9 18 30 42 51 57 58 59 59 58 59 69 84 96 106 114 119 120 118 115 111 106 101 96 91 87 83 79 74 72
70 70 71 69 62 52 44 37 32 29 25 20 15 7 8 20 31 42 49 54 55 56 56 57 61 74 89 99 107 114 118 118 116 113 108 104 99 93 89 85 81 76 72
69 70 71 69 61 51 42 34 29 24 21 17 12 7 5 13 23 33 41 48 51 52 54 54 57 66 81 92 99 107 114 116 116 114 110 106 102 96 91 87 83 78 73
69 69 70 68 61 51 42 33 27 22 19 15 10 6 5 9 17 25 34 41 46 48 50 53 54 60 72 84 92 99 107 113 115 114 111 108 104 99 93 89 85 80 74
68 68 69 68 63 53 43 34 27 23 19 15 11 8 6 8 13 20 27 34 40 44 46 49 51 54 64 76 85 92 101 108 113 114 112 109 105 101 96 91 86 82 76
67 67 68 68 64 57 46 36 29 24 20 16 12 10 8 9 11 16 22 28 34 39 42 44 48 50 58 69 78 86 94 103 110 113 112 109 106 103 98 93 88 83 77
66 67 67 67 65 60 51 41 33 27 21 17 13 10 9 9 11 13 18 23 29 33 38 40 44 47 53 63 72 81 89 97 106 111 111 109 107 104 100 95 91 87 81
65 66 66 66 65 62 56 46 37 30 24 18 13 10 9 9 10 12 15 20 24 29 33 37 40 43 50 58 67 76 84 93 101 108 110 109 107 104 102 97 93 89 84
64 65 65 66 65 63 59 51 41 33 26 20 14 9 7 7 9 11 14 17 21 25 29 33 37 41 47 55 64 72 79 88 97 105 108 109 107 104 101 99 96 91 87
62 63 64 65 64 63 60 54 45 36 28 21 15 9 5 5 7 9 11 14 18 22 26 30 34 39 45 53 61 68 76 83 92 101 105 107 106 102 100 99 97 93 88
61 61 62 63 63 62 60 56 48 39 31 23 16 9 4 2 4 7 9 12 15 19 23 27 32 37 44 51 58 66 73 79 87 96 102 103 102 100 97 96 95 93 89
60 60 60 61 62 61 60 57 51 42 34 26 19 12 7 2 2 5 7 9 12 16 21 25 30 36 43 50 56 62 69 75 80 90 98 100 99 96 92 89 90 90 88
59 59 58 58 59 60 59 56 52 45 37 29 21 15 9 5 2 3 5 8 10 14 18 23 29 35 42 49 55 60 65 71 76 83 93 96 95 92 89 85 84 86 84
59 58 58 57 57 57 57 56 52 47 40 31 24 17 11 8 5 4 5 7 9 12 16 22 28 34 41 47 52 57 62 67 71 77 88 92 93 90 86 82 78 79 80
Wind_Direction
304 303 301 299 296 293 290 287 283 279 275 271 267 263 259 255 251 248 244 241 239 237 235 233 231 230 229 228 228 228 228 227 225 224 222 221 220 219 219 219 220 220 220
306 305 303 300 297 295 292 288 285 281 277 272 267 263 258 254 250 246 243 240 237 235 233 232 230 228 227 227 226 226 226 226 225 223 222 220 219 218 218 218 218 219 219
309 308 306 303 301 298 295 291 286 282 277 272 267 262 258 253 249 245 241 238 236 233 231 229 228 227 226 225 224 224 224 224 224 223 221 220 219 218 217 217 217 217 218
312 311 309 307 305 302 298 293 287 282 276 271 265 261 256 252 247 243 240 237 234 232 229 227 226 225 224 223 223 222 222 222 222 222 221 220 219 218 217 216 216 215 216
316 315 313 311 308 305 300 295 289 282 276 269 263 258 254 250 246 242 238 235 232 230 227 225 224 223 222 221 221 221 220 220 220 220 220 219 218 218 217 216 215 215 215
319 318 317 315 312 308 304 298 291 283 276 268 261 255 250 246 243 241 237 234 231 228 226 224 222 220 219 219 219 219 219 218 218 218 218 218 218 218 218 217 216 215 214
323 322 321 319 317 313 309 303 296 287 277 268 259 252 246 242 240 238 236 234 231 227 224 222 219 218 217 217 217 217 217 217 217 217 217 217 217 217 217 217 216 215 214
327 326 325 324 322 319 315 310 303 294 283 270 259 249 242 238 236 235 235 234 232 228 224 221 218 216 215 215 215 215 215 215 215 215 215 215 215 216 217 218 217 216 215
331 330 330 329 327 325 323 320 315 306 293 276 261 249 239 234 233 232 232 233 232 230 226 221 218 215 214 213 213 213 214 214 213 213 213 214 214 214 215 218 218 217 216
334 334 334 334 333 331 330 329 327 322 309 289 266 250 238 232 229 228 230 231 231 231 228 223 218 215 213 212 211 212 212 212 212 212 212 212 213 213 213 216 218 218 216
338 338 338 339 337 336 336 337 338 336 329 311 278 252 237 229 226 225 227 229 229 230 229 226 220 216 213 212 211 211 211 211 211 211 211 211 211 212 212 214 217 218 217
341 341 342 343 342 340 341 343 347 349 347 338 308 259 236 227 223 222 222 226 228 229 229 227 222 217 214 212 211 210 210 209 209 209 210 210 210 211 211 213 215 217 219
345 345 346 347 345 343 344 346 350 355 357 356 345 288 237 225 222 220 220 222 225 228 229 227 224 219 215 213 211 210 209 208 208 208 208 209 209 210 210 212 214 216 218
348 349 350 350 349 346 345 346 350 355 359 2 0 338 248 226 221 219 219 219 222 225 228 228 224 221 217 213 212 210 209 208 207 207 207 208 208 209 209 210 212 215 217
350 352 353 353 352 349 346 344 345 349 353 356 357 347 272 230 221 219 219 219 220 222 226 229 226 221 218 214 212 211 209 207 206 206 206 207 207 208 208 209 211 214 217
353 354 355 356 355 353 348 343 340 339 340 340 338 326 281 238 224 220 219 219 219 221 224 228 227 222 217 214 212 211 209 207 205 205 205 206 206 207 207 207 209 212 215
355 356 357 358 359 357 352 346 339 332 327 325 318 302 274 242 227 221 219 219 219 220 222 226 227 223 217 213 211 210 208 206 204 204 204 205 206 206 206 207 207 210 213
357 358 359 0 1 1 357 351 344 335 326 317 308 294 270 245 230 222 219 219 219 219 221 225 227 222 216 212 209 208 207 206 204 203 203 204 205 206 206 206 206 208 210
358 360 0 2 2 3 2 358 352 344 334 323 310 294 274 250 232 223 220 218 217 218 220 223 225 221 214 209 207 206 206 205 204 203 203 204 205 206 206 206 206 207 209
359 1 2 3 4 5 5 3 358 353 345 334 321 300 277 252 233 223 218 216 216 217 218 221 222 218 211 206 204 204 203 203 203 202 202 203 205 206 206 206 206 207 209
0 2 3 5 5 6 6 6 3 359 353 345 335 314 282 253 232 220 214 212 213 214 215 216 218 213 206 202 201 201 201 202 202 202 202 203 204 206 207 207 206 207 208
1 2 4 6 7 8 8 8 7 4 0 355 348 334 298 253 227 216 210 208 210 210 211 212 212 208 201 198 198 198 199 200 201 201 201 202 204 206 208 209 208 208 210
2 3 4 6 8 9 10 10 10 9 7 5 2 356 339 269 226 211 205 205 205 204 205 207 206 202 197 194 194 196 197 199 201 201 201 202 204 206 208 210 210 210 211
2 4 5 7 9 10 11 12 12 13 12 12 13 14 13 9 204 198 197 195 195 197 200 201 200 196 192 190 191 193 196 198 199 200 201 202 203 205 207 210 212 211 213
2 4 6 7 9 11 12 13 14 15 16 17 18 21 27 42 80 143 170 178 184 190 194 195 194 190 187 187 188 191 193 196 198 199 201 202 202 204 206 208 212 213 213
3 4 6 8 9 11 12 14 16 17 18 19 21 26 34 48 70 102 132 154 168 179 186 189 189 186 184 184 186 189 192 194 196 198 200 201 201 203 205 207 210 212 213